• In Netherlands
  • List of Countries
  • For 7 days
  • Water Temperature
  • Satellite Maps
  • Weather Map
  • Weather Widgets
  • user-avatar
    Login

    Hourly Weather Borovec

    Today, 26 May, Friday

    Time Temperature Precipitation Wind Pressure Humidity
    00:00 +12°C° 0.3 mm 1 mps 708 mmHg 96%
    01:00 +12°C° 0.3 mm 1 mps 708 mmHg 96%
    02:00 +12°C° 0.3 mm 1 mps 708 mmHg 96%
    03:00 +12°C° 0.2 mm 1 mps 708 mmHg 96%
    04:00 +12°C° 0.2 mm 1 mps 708 mmHg 96%
    05:00 +11°C° 0.2 mm 1 mps 708 mmHg 96%
    06:00 +12°C° 0.1 mm 1 mps 708 mmHg 94%
    07:00 +13°C° 0.1 mm 1 mps 708 mmHg 91%
    08:00 +14°C° 0.1 mm 2 mps 708 mmHg 88%
    09:00 +15°C° 0.1 mm 2 mps 709 mmHg 83%
    10:00 +16°C° 0.1 mm 2 mps 709 mmHg 78%
    11:00 +17°C° 0.1 mm 3 mps 709 mmHg 73%
    12:00 +18°C° 0.3 mm 3 mps 709 mmHg 73%
    13:00 +18°C° 0.3 mm 3 mps 709 mmHg 72%
    14:00 +19°C° 0.3 mm 3 mps 709 mmHg 71%
    15:00 +18°C° 0.7 mm 2 mps 709 mmHg 75%
    16:00 +18°C° 0.7 mm 2 mps 708 mmHg 79%
    17:00 +18°C° 0.7 mm 2 mps 708 mmHg 82%
    18:00 +16°C° 0.8 mm 2 mps 708 mmHg 87%
    19:00 +15°C° 0.8 mm 2 mps 708 mmHg 91%
    20:00 +14°C° 0.8 mm 1 mps 708 mmHg 96%
    21:00 +13°C° 0.4 mm 1 mps 708 mmHg 96%
    22:00 +13°C° 0.4 mm 1 mps 708 mmHg 97%
    23:00 +13°C° 0.4 mm 1 mps 709 mmHg 97%

    Tomorrow, 27 May, Saturday

    Time Temperature Precipitation Wind Pressure Humidity
    00:00 +12°C° 0.3 mm 1 mps 709 mmHg 97%
    01:00 +12°C° 0.3 mm 1 mps 709 mmHg 97%
    02:00 +12°C° 0.3 mm 1 mps 708 mmHg 98%
    03:00 +12°C° 0.2 mm 1 mps 709 mmHg 97%
    04:00 +12°C° 0.2 mm 1 mps 709 mmHg 97%
    05:00 +12°C° 0.2 mm 1 mps 709 mmHg 97%
    06:00 +12°C° 0.6 mm 1 mps 709 mmHg 96%
    07:00 +13°C° 0.6 mm 1 mps 709 mmHg 95%
    08:00 +14°C° 0.6 mm 1 mps 710 mmHg 94%
    09:00 +14°C° 1.9 mm 2 mps 710 mmHg 93%
    10:00 +14°C° 1.9 mm 2 mps 710 mmHg 93%
    11:00 +14°C° 1.9 mm 2 mps 710 mmHg 92%
    12:00 +14°C° 1.6 mm 2 mps 710 mmHg 92%
    13:00 +14°C° 1.6 mm 2 mps 710 mmHg 92%
    14:00 +14°C° 1.6 mm 1 mps 710 mmHg 92%
    15:00 +14°C° 0.2 mm 2 mps 710 mmHg 90%
    16:00 +15°C° 0.2 mm 2 mps 710 mmHg 87%
    17:00 +16°C° 0.2 mm 2 mps 711 mmHg 85%
    18:00 +14°C° 0.1 mm 2 mps 711 mmHg 88%
    19:00 +13°C° 0.1 mm 2 mps 711 mmHg 92%
    20:00 +12°C° 0.1 mm 1 mps 711 mmHg 95%
    21:00 +11°C° 0 mm 1 mps 711 mmHg 96%
    22:00 +11°C° 0 mm 1 mps 712 mmHg 96%
    23:00 +10°C° 0 mm 1 mps 712 mmHg 97%

    Day after tomorrow, 28 May, Sunday

    Time Temperature Precipitation Wind Pressure Humidity
    00:00 +9°C° 0 mm 1 mps 712 mmHg 97%
    01:00 +9°C° 0 mm 1 mps 712 mmHg 97%
    02:00 +9°C° 0 mm 1 mps 712 mmHg 96%
    03:00 +8°C° 0 mm 1 mps 712 mmHg 96%
    04:00 +8°C° 0 mm 1 mps 713 mmHg 96%
    05:00 +8°C° 0 mm 1 mps 713 mmHg 96%
    06:00 +10°C° 0 mm 1 mps 713 mmHg 90%
    07:00 +13°C° 0 mm 1 mps 714 mmHg 85%
    08:00 +15°C° 0 mm 2 mps 715 mmHg 80%
    09:00 +17°C° 0 mm 2 mps 715 mmHg 72%
    10:00 +18°C° 0 mm 2 mps 715 mmHg 64%
    11:00 +20°C° 0 mm 3 mps 715 mmHg 57%
    12:00 +20°C° 0.2 mm 3 mps 715 mmHg 55%
    13:00 +21°C° 0.2 mm 3 mps 715 mmHg 54%
    14:00 +21°C° 0.2 mm 4 mps 715 mmHg 53%
    15:00 +21°C° 0.2 mm 4 mps 715 mmHg 55%
    16:00 +20°C° 0.2 mm 3 mps 715 mmHg 58%
    17:00 +20°C° 0.2 mm 3 mps 715 mmHg 61%
    18:00 +17°C° 0.1 mm 3 mps 715 mmHg 71%
    19:00 +15°C° 0.1 mm 2 mps 715 mmHg 81%
    20:00 +13°C° 0.1 mm 2 mps 715 mmHg 91%
    21:00 +12°C° 0 mm 1 mps 715 mmHg 92%
    22:00 +11°C° 0 mm 1 mps 715 mmHg 93%
    23:00 +10°C° 0 mm 1 mps 715 mmHg 94%

    29 May, Monday

    Time Temperature Precipitation Wind Pressure Humidity
    00:00 +9°C° 0 mm 1 mps 715 mmHg 94%
    01:00 +9°C° 0 mm 1 mps 715 mmHg 93%
    02:00 +8°C° 0 mm 1 mps 715 mmHg 93%
    03:00 +8°C° 0 mm 1 mps 715 mmHg 93%
    04:00 +8°C° 0 mm 1 mps 715 mmHg 92%
    05:00 +8°C° 0 mm 1 mps 715 mmHg 92%
    06:00 +11°C° 0 mm 1 mps 715 mmHg 84%
    07:00 +13°C° 0 mm 1 mps 716 mmHg 76%
    08:00 +16°C° 0 mm 1 mps 716 mmHg 68%
    09:00 +18°C° 0 mm 2 mps 716 mmHg 61%
    10:00 +19°C° 0 mm 2 mps 716 mmHg 54%
    11:00 +21°C° 0 mm 3 mps 716 mmHg 47%
    12:00 +21°C° 0 mm 3 mps 715 mmHg 46%
    13:00 +22°C° 0 mm 3 mps 715 mmHg 45%
    14:00 +22°C° 0 mm 3 mps 715 mmHg 44%
    15:00 +22°C° 0 mm 3 mps 714 mmHg 45%
    16:00 +22°C° 0 mm 3 mps 714 mmHg 47%
    17:00 +22°C° 0 mm 3 mps 714 mmHg 49%
    18:00 +19°C° 0 mm 2 mps 713 mmHg 61%
    19:00 +16°C° 0 mm 2 mps 713 mmHg 72%
    20:00 +13°C° 0 mm 1 mps 712 mmHg 84%
    21:00 +12°C° 0 mm 1 mps 712 mmHg 85%
    22:00 +11°C° 0 mm 1 mps 712 mmHg 86%
    23:00 +10°C° 0 mm 1 mps 712 mmHg 87%

    30 May, Tuesday

    Time Temperature Precipitation Wind Pressure Humidity
    00:00 +10°C° 0 mm 1 mps 712 mmHg 86%
    01:00 +9°C° 0 mm 1 mps 712 mmHg 86%
    02:00 +9°C° 0 mm 1 mps 711 mmHg 85%
    03:00 +8°C° 0 mm 1 mps 711 mmHg 85%
    04:00 +8°C° 0 mm 1 mps 711 mmHg 85%
    05:00 +7°C° 0 mm 1 mps 711 mmHg 85%
    06:00 +11°C° 0 mm 1 mps 711 mmHg 73%
    07:00 +15°C° 0 mm 1 mps 712 mmHg 62%
    08:00 +20°C° 0 mm 1 mps 713 mmHg 50%
    09:00 +21°C° 0 mm 1 mps 713 mmHg 46%
    10:00 +23°C° 0 mm 1 mps 713 mmHg 42%
    11:00 +25°C° 0 mm 1 mps 713 mmHg 37%
    12:00 +26°C° 0 mm 1 mps 713 mmHg 36%
    13:00 +26°C° 0 mm 1 mps 712 mmHg 35%
    14:00 +27°C° 0 mm 1 mps 712 mmHg 34%
    15:00 +27°C° 0 mm 1 mps 712 mmHg 37%
    16:00 +26°C° 0 mm 2 mps 712 mmHg 39%
    17:00 +26°C° 0 mm 2 mps 711 mmHg 41%
    18:00 +21°C° 0 mm 2 mps 711 mmHg 55%
    19:00 +19°C° 0 mm 1 mps 710 mmHg 69%
    20:00 +14°C° 0 mm 1 mps 710 mmHg 83%
    21:00 +13°C° 0 mm 1 mps 710 mmHg 84%
    22:00 +12°C° 0 mm 1 mps 710 mmHg 86%
    23:00 +10°C° 0 mm 0 mps 710 mmHg 87%

    31 May, Wednesday

    Time Temperature Precipitation Wind Pressure Humidity
    00:00 +10°C° 0 mm 0 mps 710 mmHg 87%
    01:00 +9°C° 0 mm 0 mps 710 mmHg 87%
    02:00 +9°C° 0 mm 0 mps 710 mmHg 88%
    03:00 +9°C° 0 mm 0 mps 710 mmHg 88%
    04:00 +10°C° 0 mm 1 mps 710 mmHg 88%
    05:00 +10°C° 0 mm 1 mps 710 mmHg 88%
    06:00 +13°C° 0 mm 1 mps 710 mmHg 78%
    07:00 +16°C° 0 mm 0 mps 711 mmHg 68%
    08:00 +20°C° 0 mm 0 mps 712 mmHg 57%
    09:00 +24°C° 0 mm 1 mps 712 mmHg 51%
    10:00 +26°C° 0 mm 1 mps 712 mmHg 45%
    11:00 +27°C° 0 mm 1 mps 712 mmHg 39%
    12:00 +28°C° 0 mm 1 mps 712 mmHg 38%
    13:00 +28°C° 0 mm 1 mps 712 mmHg 37%
    14:00 +29°C° 0 mm 2 mps 712 mmHg 37%
    15:00 +28°C° 0.2 mm 2 mps 712 mmHg 41%
    16:00 +28°C° 0.2 mm 2 mps 711 mmHg 45%
    17:00 +27°C° 0.2 mm 2 mps 711 mmHg 49%
    18:00 +24°C° 0.2 mm 1 mps 711 mmHg 61%
    19:00 +20°C° 0.2 mm 1 mps 710 mmHg 73%
    20:00 +16°C° 0.2 mm 1 mps 710 mmHg 85%
    21:00 +15°C° 0 mm 1 mps 710 mmHg 86%
    22:00 +14°C° 0 mm 1 mps 710 mmHg 87%
    23:00 +14°C° 0 mm 1 mps 710 mmHg 87%
    Show more